User: anonymous   Login
Location: Auttagershofen
(48.1940°N, 10.0237°E)
Time: 09:53:45
(UTC+00:00)
Language:

Lacrosse 4 Rocket - Orbit

View from above orbital plane
View from above orbital plane
View from above satellite
View from above satellite

Ground track
Ground track

The orbit is defined by the following mean orbital elements,

1 26474U          26076.11724321 +.00000000 +00000-0 +22333-3 0 00004
2 26474  67.9910  19.6226 0038829  26.5531 333.7595 15.09638120    05
Epoch (UTC): 17 March 2026 02:48:49
Eccentricity: 0.0038829
inclination: 67.9910°
perigee height: 510 km
apogee height: 564 km
right ascension of ascending node: 19.6226°
argument of perigee: 26.5531°
revolutions per day: 15.09638120
mean anomaly at epoch: 333.7595°

The dashed part of the orbit path shows where the satellite is in the earth's shadow,  

DLR